Flag for Canada Weather past 2 weeks in Qikiqtarjuaq, Nunavut, Canada

Now
36 °F

Drizzle. Low clouds.


Feels Like: 36 °F
Forecast: 33 / 37 °F
Wind: 2 mph from West

Location: Broughton Island Airport

Current Time: Aug 2, 2015 at 9:02:42 AM

Latest Report: Aug 2, 2015 at 8:00 AM


Visibility: 8 mi

Pressure: 30.13 "Hg

Humidity: 93%

Dew point: 34 °F

Location of QikiqtarjuaqLocation

Historic Weather in Qikiqtarjuaq — Graph

°F

Qikiqtarjuaq temperature yesterday

Maximum temperature yesterday: 36 °F (at 9:00 AM)
Minimum temperature yesterday: 34 °F (at 12:00 AM)
Average temperature yesterday: 35 °F

Past Weeks' High & Low Weather Summary

 TemperatureHumidityPressure
High54 °F (Jul 22, 11:00 AM)100% (Jul 26, 7:45 AM)30.21 "Hg (Jul 26, 7:45 AM)
Low32 °F (Jul 18, 11:00 PM)47% (Jul 22, 10:00 PM)29.86 "Hg (Jul 25, 12:00 PM)
Average38 °F86%30.05 "Hg
* Reported Jul 18 8:00 AM — Aug 2 8:00 AM, Qikiqtarjuaq, Weather by CustomWeather, © 2015

Note: Actual official high and low records may vary slightly from our data, if they occured in-between our weather recording intervals... More about our weather records

Advertising

Qikiqtarjuaq weather history for previous 24 hours

 ConditionsComfort  
Time TempWeatherWind HumidityBarometerVisibility
8:00 AM
Sun, Aug 2
36 °FDrizzle. Low clouds.2 mph93%30.13 "Hg8 mi
7:00 AM34 °FDrizzle. Low clouds.2 mph100%30.11 "Hg8 mi
6:00 AM34 °FDrizzle. More clouds than sun.2 mph100%30.10 "Hg8 mi
5:00 AM34 °FLight rain. Mostly cloudy.3 mph100%30.09 "Hg9 mi
4:45 AM34 °FLight rain. Fog.5 mph100%30.08 "Hg6 mi
4:00 AM34 °FLight rain. Fog.6 mph100%30.07 "Hg3 mi
3:00 AM34 °FLight rain. Low clouds.6 mph100%30.06 "Hg9 mi
2:00 AM34 °FLight rain. Low clouds.3 mph100%30.05 "Hg9 mi
1:59 AM34 °FLight rain. Low clouds.3 mph100%30.05 "Hg9 mi
1:00 AM34 °FLow clouds.5 mph100%30.05 "Hg9 mi
12:00 AM34 °FLow clouds.6 mph93%30.05 "Hg9 mi
11:00 PM
Sat, Aug 1
34 °FLow clouds.3 mph93%30.05 "Hg9 mi
10:00 PM34 °FLow clouds.5 mph100%30.05 "Hg9 mi
9:00 PM36 °FLow clouds.6 mph93%30.05 "Hg9 mi
8:00 PM34 °FLow clouds.3 mph100%30.04 "Hg9 mi
7:00 PM34 °FLow clouds.5 mph100%30.05 "Hg9 mi
6:00 PM36 °FLight rain. Low clouds.7 mph93%30.03 "Hg9 mi
5:00 PM36 °FLow clouds.6 mph93%30.03 "Hg15 mi
4:00 PM36 °FLow clouds.7 mph93%30.02 "Hg15 mi
3:00 PM36 °FLow clouds.6 mph93%30.02 "Hg15 mi
2:00 PM36 °FLow clouds.6 mph93%30.01 "Hg15 mi
1:00 PM36 °FLow clouds.7 mph93%30.01 "Hg15 mi
12:00 PM36 °FMostly cloudy.6 mph93%30.00 "Hg15 mi
11:00 AM36 °FLight rain. Mostly cloudy.6 mph93%30.01 "Hg10 mi
10:00 AM36 °FLight rain. Mostly cloudy.6 mph93%30.01 "Hg6 mi
9:00 AM36 °FLight rain. Mostly cloudy.5 mph93%30.01 "Hg6 mi
Weather by CustomWeather, © 2015

See weather overviewHow to use our weather pages